Location: Central Falls
(41.8900°N, 71.3929°W)
Time: 12:36:10
(UTC+00:00)

Altair - Pass Details

Date: 13 December 2023
Orbit: 1501 x 1682 km, 47.2° (Epoch: 20 February)

Event Time Altitude Azimuth Distance (km) Brightness Sun altitude
Rises 11:41:00 0° 249° (WSW) 4,881 9.7 -4.7°
Reaches altitude 10° 11:44:11 10° 250° (WSW) 3,875 9.2 -4.1°
Maximum altitude 11:54:07 81° 339° (NNW) 1,616 7.6 -2.5°
Drops below altitude 10° 12:03:40 10° 67° (ENE) 3,737 10.1 -1.0°
Sets 12:06:41 0° 68° (ENE) 4,701 10.6 -0.5°
